GW5207 Weather Reports


time (UTC)temp
C
wind
direction
speed
KPH
gust
KPH
rain 1hr
cm
rain 24hr
cm
rain mn
cm
humidity
%
barometer
mb
20260507153031 14 317 1.6 11.3 0.00 0.38 0.00 48 1007.9
20260507151528 13 281 1.6 12.9 0.00 0.38 0.00 51 1008.0
20260507150030 12 303 1.6 6.4 0.00 0.38 0.00 57 1008.1
20260507144532 12 194 0.0 11.3 0.00 0.38 0.00 65 1008.1
20260507143025 12 260 0.0 4.8 0.00 0.38 0.00 66 1008.1
20260507141527 12 260 1.6 6.4 0.00 0.38 0.00 68 1007.9
20260507140025 12 246 1.6 11.3 0.00 0.38 0.00 69 1008.0
20260507134520 12 302 0.0 9.7 0.00 0.38 0.00 68 1008.0
20260507133014 12 222 0.0 4.8 0.00 0.38 0.00 68 1008.0
20260507131532 12 177 1.6 6.4 0.00 0.38 0.00 67 1008.2
20260507130030 11 155 0.0 12.9 0.00 0.38 0.00 72 1008.3
20260507124542 11 262 1.6 6.4 0.00 0.38 0.00 72 1008.2
20260507123030 10 180 0.0 6.4 0.00 0.38 0.00 73 1008.2
20260507121528 10 286 0.0 4.8 0.00 0.38 0.00 79 1008.3
20260507120028 9 272 0.0 4.8 0.00 0.38 0.00 81 1008.6
20260507114528 9 140 1.6 11.3 0.00 0.38 0.00 81 1008.5
20260507113027 8 107 0.0 6.4 0.00 0.38 0.00 83 1008.2
20260507111524 8 252 0.0 0.0 0.00 0.38 0.00 85 1008.3
20260507110029 7 80 0.0 1.6 0.00 0.38 0.00 84 1008.2
20260507104528 7 270 0.0 3.2 0.00 0.38 0.00 85 1007.9
20260507103028 7 192 0.0 0.0 0.00 0.38 0.00 85 1007.8
20260507101530 7 259 0.0 3.2 0.00 0.38 0.00 86 1007.8
20260507100027 7 249 0.0 4.8 0.00 0.38 0.00 86 1007.6
20260507094526 7 184 0.0 6.4 0.00 0.38 0.00 86 1007.9
20260507093034 7 156 0.0 3.2 0.00 0.38 0.00 87 1008.0
20260507091536 7 174 0.0 4.8 0.00 0.38 0.00 88 1007.9
20260507090027 7 136 0.0 0.0 0.00 0.38 0.00 88 1008.3
20260507084532 7 152 0.0 1.6 0.00 0.38 0.00 89 1008.1
20260507083020 8 121 0.0 1.6 0.00 0.38 0.00 90 1007.6
20260507081528 8 150 0.0 0.0 0.00 0.38 0.00 91 1007.6
20260507080029 8 132 0.0 0.0 0.00 0.38 0.00 92 1007.4
20260507074528 8 132 0.0 0.0 0.00 0.38 0.00 90 1007.7
20260507073029 8 138 0.0 0.0 0.00 0.38 0.00 90 1007.6
20260507071528 8 131 0.0 4.8 0.00 0.38 0.00 90 1007.3
20260507070022 8 253 0.0 3.2 0.00 0.38 0.00 90 1007.3
20260507064520 8 206 0.0 4.8 0.00 0.38 0.00 90 1007.1
20260507063039 8 61 0.0 6.4 0.00 0.38 0.00 91 1007.3
20260507061533 8 157 0.0 3.2 0.00 0.38 0.00 92 1006.9
20260507060038 9 213 0.0 3.2 0.00 0.38 0.00 93 1007.2
20260507054526 9 213 0.0 1.6 0.00 0.38 0.00 93 1007.8
20260507053026 9 190 0.0 0.0 0.00 0.38 0.00 93 1007.4
20260507051525 9 190 0.0 3.2 0.00 0.38 0.00 93 1007.7
20260507050032 9 171 0.0 1.6 0.00 0.38 0.00 93 1007.6
20260507044530 9 171 0.0 1.6 0.00 0.38 0.00 92 1007.3
20260507043020 10 171 0.0 6.4 0.00 0.38 0.00 93 1007.4
20260507041526 10 227 0.0 6.4 0.00 0.38 0.00 93 1007.5
20260507040025 10 161 0.0 3.2 0.00 0.38 0.00 93 1007.3
20260507034534 11 105 1.6 6.4 0.05 0.38 0.38 94 1007.0
20260507033030 11 275 0.0 3.2 0.05 0.38 0.38 94 1006.9
20260507031529 11 269 0.0 6.4 0.05 0.38 0.38 94 1006.8
20260507030022 12 137 0.0 4.8 0.05 0.38 0.38 94 1006.4
20260507024525 12 215 0.0 4.8 0.00 0.33 0.33 95 1006.8
20260507023026 13 231 0.0 6.4 0.00 0.33 0.33 95 1006.6
20260507021526 13 172 0.0 4.8 0.00 0.33 0.33 96 1006.1
20260507020028 14 316 0.0 0.0 0.00 0.33 0.33 97 1006.1
20260507014525 14 316 0.0 0.0 0.00 0.33 0.33 97 1005.8
20260507013043 14 316 0.0 0.0 0.00 0.33 0.33 97 1005.8
20260507011526 14 316 0.0 0.0 0.00 0.33 0.33 97 1005.8
20260507010034 14 316 0.0 0.0 0.00 0.33 0.33 97 1005.7
20260507004526 14 316 0.0 0.0 0.00 0.33 0.33 96 1005.7
20260507003025 14 316 0.0 0.0 0.00 0.33 0.33 96 1005.4
20260507001530 14 315 0.0 0.0 0.00 0.33 0.33 96 1005.4
20260507000028 14 336 0.0 1.6 0.00 0.33 0.33 96 1005.3
20260506234527 14 336 0.0 3.2 0.00 0.33 0.33 96 1005.1
20260506233036 14 117 0.0 1.6 0.00 0.33 0.33 96 1005.1
20260506231528 14 117 0.0 4.8 0.00 0.33 0.33 96 1005.1
20260506230010 14 280 0.0 3.2 0.00 0.33 0.33 96 1005.2
20260506224523 14 280 0.0 3.2 0.00 0.33 0.33 96 1005.4
20260506223022 14 280 0.0 1.6 0.03 0.33 0.33 96 1005.3
20260506221526 15 280 0.0 3.2 0.05 0.33 0.33 95 1005.5
20260506220028 15 290 0.0 3.2 0.05 0.33 0.33 95 1005.6
20260506214527 15 288 0.0 4.8 0.08 0.33 0.33 95 1005.5
20260506213027 15 302 0.0 4.8 0.05 0.30 0.30 95 1005.6
20260506211527 15 360 0.0 4.8 0.05 0.28 0.28 95 1005.7
20260506210033 15 263 1.6 6.4 0.05 0.28 0.28 95 1005.7
20260506204510 15 327 0.0 6.4 0.05 0.25 0.25 94 1005.8
20260506203023 15 290 0.0 3.2 0.08 0.25 0.25 94 1005.9
20260506201533 16 288 1.6 4.8 0.05 0.23 0.23 94 1006.0
20260506200039 15 298 1.6 6.4 0.05 0.23 0.23 93 1006.1
20260506194528 16 331 0.0 3.2 0.03 0.20 0.20 94 1006.3
20260506193028 16 45 0.0 3.2 0.03 0.18 0.18 93 1006.4
20260506191527 16 46 0.0 0.0 0.05 0.18 0.18 93 1006.0
20260506190023 16 46 0.0 1.6 0.10 0.18 0.18 93 1006.1
20260506184526 16 46 0.0 0.0 0.15 0.18 0.18 92 1006.5
20260506183033 16 46 0.0 1.6 0.15 0.15 0.15 91 1007.0
20260506181526 16 50 0.0 3.2 0.13 0.13 0.13 89 1007.2
20260506180030 17 343 0.0 1.6 0.08 0.08 0.08 84 1007.4
20260506174527 18 338 0.0 3.2 0.03 0.03 0.03 76 1007.5
20260506173023 20 259 0.0 4.8 0.00 0.00 0.00 71 1007.4
20260506171519 20 264 0.0 12.9 0.00 0.00 0.00 66 1007.1
20260506170027 20 227 3.2 8.0 0.00 0.00 0.00 67 1007.2
20260506164525 20 291 0.0 4.8 0.00 0.00 0.00 69 1007.2
20260506163025 20 325 0.0 8.0 0.00 0.00 0.00 69 1007.4
20260506161511 20 290 1.6 8.0 0.00 0.00 0.00 68 1007.5
20260506160021 20 258 1.6 4.8 0.00 0.00 0.00 70 1007.9
20260506154530 20 98 1.6 4.8 0.00 0.00 0.00 71 1008.3